Tracking 19709 objects as of 17-Jun-2019
HD Live streaming from Space Station
objects crossing your sky now

SL-14 DEB

Track SL-14 DEB now!
10-day predictions


NORAD ID: 25221
Int'l Code: 1987-068AY
Perigee: 940.9 km
Apogee: 1,189.0 km
Inclination: 82.3 °
Period: 106.4 minutes
Semi major axis: 7435 km
RCS: 0.077 m2 (small)
Launch date: August 18, 1987
Source: Commonwealth of Independent States (former USSR) (CIS)
Launch site: PLESETSK MISSILE AND SPACE COMPLEX (PKMTR)

Note: This is SATELLITE DEBRIS
aabbcc
Your satellite tracking list
Your tracking list is empty




NASA's NSSDC Master Catalog

Two Line Element Set (TLE):
1 25221U 87068AY  19167.87718222  .00000142  00000-0  17402-3 0  9996
2 25221  82.2985 292.0592 0166817  15.0495 103.1310 13.53926753 52370
Source of the keplerian elements: AFSPC